Roanoke, VA

3:48 PM EST on December 06, 2019 (GMT -0500)
Roanoke Regional-Woodrum

Weather History for KROA - October, 2019

Change the Weather History Date:

Friday, October 11, 2019

  Actual Average Record
Temperature  
Mean Temperature 64 °F 59 °F  
Max Temperature 79 °F 70 °F 89 °F (1919)
Min Temperature 49 °F 48 °F 28 °F (1964)
Degree Days  
Heating Degree Days 1 7  
Month to date heating degree days 13 62  
Since 1 July heating degree days 14 111  
Cooling Degree Days 0 1  
Month to date cooling degree days 71 13  
Year to date cooling degree days 1755 1199  
Growing Degree Days 14 (Base 50)    
Moisture  
Dew Point 53 °F    
Average Humidity 70    
Maximum Humidity 96    
Minimum Humidity 43    
Precipitation  
Precipitation 0.00 in 0.09 in 2.66 in (1983)
Month to date precipitation 0.63 1.01  
Year to date precipitation 32.69 33.03  
Snow  
Snow 0.00 in - - ()
Month to date snowfall 0.0  
Since 1 July snowfall T  
Since 1 September snowfall 0.0  
Snow Depth 0.00 in    
Sea Level Pressure  
Sea Level Pressure 30.13 in    
Wind  
Wind Speed 2 mph (SE)    
Max Wind Speed 8 mph    
Max Gust Speed 12 mph    
Visibility 10 miles    
Events      
T = Trace of Precipitation, MM = Missing Value Source: NWS Daily Summary

Daily Weather History Graph

Daily Weather History Graph

Search for Another Location

Airport or City:

Astronomy

Oct. 11, 2019 Rise Set
Actual Time 7:24 AM EDT 6:48 PM EDT
Civil Twilight 6:57 AM EDT 7:14 PM EDT
Nautical Twilight 6:27 AM EDT 7:45 PM EDT
Astronomical Twilight 5:57 AM EDT 8:15 PM EDT
Moon 6:13 PM EDT (10/11) 5:07 AM EDT (10/11)
Length of Visible Light 12h 17m
Length of Day
11h 24m
Waxing Gibbous, 96% of the Moon is Illuminated
Oct 11
Waxing Gibbous
Oct 13
Full
Oct 21
Last Quarter
Oct 27
New
Nov 4
First Quarter

Hourly Weather History & Observations

Time (EDT) Temp. Dew Point Humidity Pressure Visibility Wind Dir Wind Speed Gust Speed Precip Events Conditions
12:54 AM 55.9 °F 52.0 °F 87% 30.19 in 10.0 mi Calm Calm - N/A   Scattered Clouds
1:54 AM 55.9 °F 51.1 °F 84% 30.20 in 10.0 mi Calm Calm - N/A   Clear
2:54 AM 52.0 °F 50.0 °F 93% 30.19 in 10.0 mi Calm Calm - N/A   Clear
3:54 AM 52.0 °F 50.0 °F 93% 30.18 in 10.0 mi Calm Calm - N/A   Clear
4:54 AM 51.1 °F 48.9 °F 92% 30.18 in 10.0 mi West 3.5 mph - N/A   Clear
5:54 AM 52.0 °F 48.9 °F 89% 30.19 in 10.0 mi Calm Calm - N/A   Clear
6:54 AM 51.1 °F 48.9 °F 92% 30.19 in 10.0 mi Calm Calm - N/A   Clear
7:54 AM 51.1 °F 48.9 °F 92% 30.20 in 10.0 mi Calm Calm - N/A   Clear
8:54 AM 57.0 °F 52.0 °F 83% 30.21 in 10.0 mi Calm Calm - N/A   Clear
9:54 AM 62.1 °F 54.0 °F 75% 30.21 in 10.0 mi Calm Calm - N/A   Clear
10:54 AM 66.0 °F 55.0 °F 68% 30.19 in 10.0 mi Calm Calm - N/A   Clear
11:54 AM 70.0 °F 54.0 °F 57% 30.17 in 10.0 mi Variable 3.5 mph - N/A   Partly Cloudy
12:54 PM 71.1 °F 54.0 °F 55% 30.14 in 10.0 mi Variable 6.9 mph - N/A   Partly Cloudy
1:54 PM 73.9 °F 55.0 °F 52% 30.11 in 10.0 mi North 4.6 mph - N/A   Partly Cloudy
2:54 PM 75.0 °F 55.0 °F 50% 30.08 in 10.0 mi Variable 3.5 mph - N/A   Partly Cloudy
3:54 PM 77.0 °F 54.0 °F 45% 30.06 in 10.0 mi Variable 3.5 mph - N/A   Partly Cloudy
4:54 PM 75.9 °F 54.0 °F 46% 30.04 in 10.0 mi SE 4.6 mph - N/A   Partly Cloudy
5:54 PM 75.9 °F 55.0 °F 48% 30.03 in 10.0 mi SSE 3.5 mph - N/A   Partly Cloudy
6:54 PM 71.1 °F 54.0 °F 55% 30.04 in 10.0 mi SE 6.9 mph - N/A   Partly Cloudy
7:54 PM 71.1 °F 55.0 °F 57% 30.05 in 10.0 mi SE 3.5 mph - N/A   Clear
8:54 PM 68.0 °F 55.0 °F 63% 30.06 in 10.0 mi East 4.6 mph - N/A   Clear
9:54 PM 66.9 °F 55.0 °F 66% 30.06 in 10.0 mi East 3.5 mph - N/A   Clear
10:54 PM 64.0 °F 55.0 °F 73% 30.06 in 10.0 mi SE 5.8 mph - N/A   Clear
11:54 PM 61.0 °F 55.0 °F 81% 30.06 in 10.0 mi Calm Calm - N/A   Clear